Renton, WA
on Saturday, November 17, 2012

Saturday
Previous Day Next Day
Daily Summary
 ActualAverage (KSEA)Record (KSEA)
Temperature
Mean Temperature °F 45°F  
Max Temperature 55°F 51°F 61°F (1965)
Min Temperature 45°F 40°F 23°F (1955)
Degree Days
Heating Degree Days 15 20  
Month to date heating degree days 308  
Since 1 July heating degree days 905  
Cooling Degree Days 0 0  
Month to date cooling degree days 0  
Year to date cooling degree days 189  
Moisture
Dew Point 42°F   
Average Humidity 75    
Maximum Humidity 87    
Minimum Humidity 55    
Precipitation
Precipitation 0.25 in 0.23 in 1.06 in (1982)
Month to date precipitation 3.65  
Year to date precipitation 29.22  
Snow
Snow 0.00 in in 4.60 in (1955)
Month to date snowfall  
Since 1 July snowfall  
Snow Depth in   
Wind
Wind Speed 5 mph   
Max Wind Speed 15 mph   
Max Gust Speed 24 mph   
Visibility 9 miles   
Events Rain   

Key: T is trace of precipitation, MM is missing value
Source: NWS Daily Summary
Time(PST)TemperatureDew PointHumidity Pressure Visibility Wind DirectionWind SpeedGust SpeedPrecipitationEvents Conditions
12:53 AM 50.0°F 43.0°F 77% 29.69 in 10.0 miles South 3.5 mph - 0.01 in Rain Light Rain
1:53 AM 50.0°F 43.0°F 77% 29.66 in 10.0 miles Calm Calm - 0.01 in   Overcast
2:53 AM 52.0°F 41.0°F 66% 29.63 in 10.0 miles South 4.6 mph - 0.00 in   Overcast
3:53 AM 53.1°F 39.9°F 61% 29.60 in 10.0 miles SSW 3.5 mph - N/A   Overcast
4:53 AM 53.1°F 39.9°F 61% 29.59 in 10.0 miles South 4.6 mph - N/A   Overcast
5:53 AM 54.0°F 39.0°F 57% 29.57 in 10.0 miles East 9.2 mph - 0.00 in   Overcast
6:53 AM 54.0°F 39.0°F 57% 29.57 in 10.0 miles SSE 4.6 mph - N/A   Overcast
7:53 AM 54.0°F 39.9°F 59% 29.55 in 10.0 miles Variable 5.8 mph - N/A   Clear
8:53 AM 54.0°F 39.9°F 59% 29.53 in 10.0 miles ESE 6.9 mph - N/A   Partly Cloudy
9:53 AM 55.0°F 39.0°F 55% 29.52 in 10.0 miles ESE 10.4 mph 20.7 mph N/A   Overcast
10:53 AM 55.9°F 39.9°F 55% 29.49 in 10.0 miles ESE 9.2 mph 20.7 mph N/A   Overcast
11:53 AM 54.0°F 45.0°F 72% 29.52 in 8.0 miles SW 15.0 mph 24.2 mph 0.00 in Rain Light Rain
12:30 PM 51.8°F 46.4°F 82% 29.53 in 10.0 miles Variable 6.9 mph 20.7 mph 0.00 in Rain Light Rain
12:38 PM 51.8°F 44.6°F 76% 29.53 in 9.0 miles SSW 8.1 mph 18.4 mph 0.01 in Rain Light Rain
12:53 PM 50.0°F 44.1°F 80% 29.56 in 8.0 miles SSE 9.2 mph 17.3 mph 0.01 in Rain Light Rain
1:53 PM 48.9°F 43.0°F 80% 29.60 in 10.0 miles South 5.8 mph - 0.01 in Rain Light Rain
2:21 PM 48.2°F 42.8°F 82% 29.59 in 5.0 miles South 4.6 mph - 0.00 in Rain Light Rain
2:53 PM 48.0°F 44.1°F 86% 29.60 in 4.0 miles ESE 3.5 mph - 0.02 in Rain Light Rain
3:00 PM 48.2°F 44.6°F 87% 29.59 in 5.0 miles SSE 9.2 mph - 0.00 in Rain Light Rain
3:53 PM 48.0°F 43.0°F 83% 29.64 in 7.0 miles SSE 8.1 mph - 0.14 in Rain Light Rain
4:06 PM 46.4°F 42.8°F 87% 29.63 in 9.0 miles SSE 9.2 mph - 0.00 in Rain Light Rain
4:53 PM 46.9°F 41.0°F 80% 29.66 in 10.0 miles SE 5.8 mph - 0.02 in Rain Light Rain
5:00 PM 46.4°F 41.0°F 81% 29.64 in 10.0 miles SE 5.8 mph - 0.00 in Rain Light Rain
5:53 PM 46.0°F 42.1°F 86% 29.67 in 10.0 miles ESE 4.6 mph - 0.00 in Rain Light Rain
6:53 PM 46.0°F 42.1°F 86% 29.67 in 10.0 miles Calm Calm - 0.00 in   Mostly Cloudy
7:53 PM 45.0°F 39.9°F 82% 29.66 in 10.0 miles SE 3.5 mph - N/A   Clear
8:53 PM 45.0°F 39.9°F 82% 29.69 in 10.0 miles ESE 3.5 mph - 0.01 in Rain Light Rain
9:53 PM 45.0°F 41.0°F 86% 29.70 in 8.0 miles ESE 5.8 mph - 0.01 in Rain Light Rain
10:53 PM 46.0°F 39.9°F 79% 29.71 in 10.0 miles SE 5.8 mph - 0.01 in   Partly Cloudy
11:53 PM 45.0°F 39.9°F 82% 29.74 in 10.0 miles ESE 3.5 mph - 0.00 in   Mostly Cloudy
Moon Phase
Nov. 17 Nov. 20 Nov. 28 Dec. 06 Dec. 13
Sunrise:07:17 AM (PST) Moon Rise:11:06 AM (PST)11/17
Sunset:04:29 PM (PST) Moon Set:08:47 PM (PST)11/17

Copyright © 2014 The Weather Underground, Inc.